Regional Weather Roundup
Issued by NWS Boston, MA

Home | Current Version | Previous Version | Text Only | Print | Product List | Glossary On
Versions: 1 2 3 4 5 6 7 8 9 10 11 12 13 14 15 16 17 18 19 20 21 22 23 24 25 26 27 28 29 30 31 32 33 34 35 36 37 38 39 40 41 42 43 44 45 46 47 48 49 50
000
ASUS41 KBOX 181610
RWRBOX

REGIONAL WEATHER ROUNDUP
NATIONAL WEATHER SERVICE TAUNTON MA
1100 AM EST SAT NOV 18 2017

NOTE:  "FAIR" INDICATES FEW OR NO CLOUDS BELOW 12,000 FEET WITH NO
SIGNIFICANT WEATHER AND/OR OBSTRUCTIONS TO VISIBILITY.

MAZALL-181700-
EASTERN MASSACHUSETTS

CITY           SKY/WX    TMP DP  RH WIND       PRES   REMARKS
BOSTON         PTSUNNY   40  20  44 SE3       29.91F
BEVERLY        CLOUDY    43  14  31 S8        29.90F
LAWRENCE       MOSUNNY   43  15  32 S6        29.91F
BEDFORD        MOSUNNY   41  14  33 S7        29.89F
BLUE HILL      NOT AVBL
NORWOOD        CLOUDY    43  17  35 S5        29.91F
MARSHFIELD     CLOUDY    45  16  31 S6        29.90F
PLYMOUTH       CLOUDY    45  23  42 SW9       29.91F
TAUNTON        MOSUNNY   44  28  53 VRB6      29.91F
NEW BEDFORD    CLOUDY    45  30  55 SW10      29.91F
$$

MAZALL-181700-
CAPE COD AND THE ISLANDS

CITY           SKY/WX    TMP DP  RH WIND       PRES   REMARKS
FALMOUTH       CLOUDY    45  27  49 S3        29.92F
HYANNIS        SUNNY     45  19  36 SW7       29.94S
CHATHAM        CLOUDY    44  20  38 SW5       29.94F
PROVINCETOWN   CLOUDY    44  19  36 S7        29.93F
NANTUCKET      CLOUDY    50  38  63 SW13      29.93F
MARTHAS VNYRD  CLOUDY    51  35  54 SW14      29.92F
$$

MAZALL-181700-
CENTRAL AND WESTERN MASSACHUSETTS

CITY           SKY/WX    TMP DP  RH WIND       PRES   REMARKS
WORCESTER      CLOUDY    37  15  40 SW15      29.86F WCI  28
FITCHBURG      CLOUDY    42  18  37 S7        29.88F
ORANGE         CLOUDY    33  25  72 SE3       29.87F
SPRINGFIELD    CLOUDY    32  19  58 CALM      29.88F
WESTFIELD      CLOUDY    32  21  64 CALM      29.88F
NORTH ADAMS    CLOUDY    40  19  43 NE10      29.80F
PITTSFIELD     CLOUDY    32  21  64 NE6       29.79F WCI  26
$$

RIZALL-181700-
RHODE ISLAND

CITY           SKY/WX    TMP DP  RH WIND       PRES   REMARKS
PROVIDENCE     PTSUNNY   42  27  55 S6        29.92F
NEWPORT        MOSUNNY   44  30  57 S8        29.91F
BLOCK ISLAND   MOSUNNY   48  35  60 SW7       29.92F
SMITHFIELD     MOSUNNY   41  19  41 VRB5      29.90F
WESTERLY       CLOUDY    43  30  60 CALM      29.92F
$$

CTZALL-181700-
CONNECTICUT

CITY           SKY/WX    TMP DP  RH WIND       PRES   REMARKS
BRADLEY INTL   CLOUDY    33  20  58 CALM      29.90F
HARTFORD       CLOUDY    36  19  50 CALM      29.90F
BRIDGEPORT     CLOUDY    43  28  55 CALM      29.89F
DANBURY        CLOUDY    43  26  51 S9        29.87F
GROTON         CLOUDY    48  35  60 SW12      29.90F
NEW HAVEN      CLOUDY    42  28  57 CALM      29.89F
CHESTER        FAIR      45  28  53 VRB3      29.89F
MERIDEN        CLOUDY    34  21  59 CALM      29.90F
WILLIMANTIC    MOSUNNY   35  25  66 CALM      29.92F
OXFORD         CLOUDY    38  26  62 VRB5      29.87F
$$

MEZ002-015-021-024-NHZ003-005-008-011-012-014-VTZ005-008-181700-
NORTHERN NEW ENGLAND

CITY           SKY/WX    TMP DP  RH WIND       PRES   REMARKS
PORTLAND ME    MOSUNNY   38  21  50 S6        29.91F
BANGOR ME      PTSUNNY   34  16  47 SW5       29.89F WCI  30
CONCORD NH     CLOUDY    36  15  42 CALM      29.87F
MANCHESTER NH  PTSUNNY   38  14  37 SE5       29.86F
NASHUA NH      MOSUNNY   38  18  44 CALM      29.89F
PORTSMOUTH NH  PTSUNNY   39  10  30 S3        29.88F
JAFFREY NH     CLOUDY    36  17  46 SW6       29.84F WCI  31
KEENE NH       CLOUDY    32  24  72 S3        29.87F
BURLINGTON VT  CLOUDY    34  14  43 S13       29.74F WCI  25
MT. WASHINGTON MOSUNNY   27  -2  28 SW32G38     N/A  WCI  10
$$

NYZ052-076-181700-
EASTERN NEW YORK

CITY           SKY/WX    TMP DP  RH WIND       PRES   REMARKS
ALBANY         CLOUDY    33  18  53 S6        29.79F WCI  28
NEW YORK CITY  CLOUDY    48  31  51 S15G23    29.88F
$$

ANZALL-181700-
MARINE OBSERVATIONS

STATION/POSITION TIME  TEMP    WIND        PRES    VSBY  WAVE
                       AIR SEA DIR/SP/G                  HT/PER
                 (UTC) (F)     (DEG/KT/KT) (MB)    (MI)  (FT/S)
BOSTON BUOY      1550   41 50  160/  6/  8 1011.7F         1/11
BUZZARDS BAY     1500   44     250/  6/  8 1014.6F
NANTUCKET SOUND  1550   44 50  200/  4/  4 1013.7F         1/ 5
MASS BAY-STELLWA 1504   41 50  210/  4/  6 1012.9F         1/ 3
ISLE OF SHOALS   1600   38      CALM  /  1 1012.1F
S OF BLOCK IS    NOT AVBL
$$

......................KEY.........................
  SKY/WX - SKY CONDITION/PRESENT WEATHER
  TMP    - TEMPERATURE IN FAHRENHEIT
  DWPT   - DEWPOINT IN FAHRENHEIT
  RH     - RELATIVE HUMIDITY IN PERCENT
  WIND   - DIRECTION AND SPEED IN MPH
  PRES   - MEAN SEA LEVEL PRESSURE IN INCHES OF HG
  WCI    - WIND CHILL INDEX
  VSB    - VISIBILITY IN MILES
  HX     - HEAT INDEX
  TC     - TEMPERATURE IN CELSIUS
  VRB    - VARIABLE WIND DIRECTION
  N/A    - NOT AVAILABLE



USA.gov is the U.S. government's official web portal to all federal, state and local government web resources and services.